Location: Ambatotampy
(18.8181°S, 47.6186°E)
Time: 23:37:13
(UTC+00:00)

SWAS - Pass Details

Date: 21 January 2021
Orbit: 578 x 592 km, 69.9° (Epoch: 24 February)

Event Time Altitude Azimuth Distance (km) Brightness Sun altitude
Rises 01:20:59 0° 201° (SSW) 2,813 8.0 -15.4°
Reaches altitude 10° 01:23:13 10° 202° (SSW) 1,907 7.1 -14.9°
Maximum altitude 01:27:29 78° 286° (WNW) 598 4.3 -14.1°
Drops below altitude 10° 01:31:41 10° 13° (NNE) 1,882 6.9 -13.2°
Sets 01:33:54 0° 15° (NNE) 2,774 7.8 -12.7°
